{"data":{"norad_id":55159,"epoch":"2026-05-25T02:37:15.055392Z","epoch_age_seconds":68768,"freshness":"FRESH","line1":"1 55159U 23004V   26145.10920203  .00003865  00000+0  21710-3 0  9994","line2":"2 55159  86.9116 187.0010 0013401  32.1957 328.0098 15.12941044178772","mean_motion":15.12941044,"eccentricity":0.0013401,"inclination_deg":86.9116,"raan_deg":187.001,"arg_perigee_deg":32.1957,"mean_anomaly_deg":328.0098,"bstar":0.0002171,"rev_number":17877,"period_min":95.178857478335,"perigee_km":517.98257116136,"apogee_km":536.49035311458,"semimajor_km":6905.373462138,"source":"CELESTRAK","updated_at":"2026-05-25T13:38:22.643419Z"}}